www.pogodaiklimat.ru
ПОГОДА в Энаротали
Время
(UTC), дата
09 17.02
12 17.02
21 17.02
00 18.02
03 18.02
06 18.02
09 18.02
12 18.02
21 18.02
00 19.02
03 19.02
06 19.02
09 19.02
12 19.02
21 19.02
00 20.02
03 20.02
06 20.02
09 20.02
12 20.02
21 20.02
00 21.02
03 21.02
06 21.02
09 21.02
12 21.02
21 21.02
00 22.02
03 22.02
06 22.02
09 22.02
12 22.02
21 22.02
00 23.02
03 23.02
06 23.02
09 23.02
12 23.02
21 23.02
00 24.02
03 24.02
06 24.02
Ветер
(напр.,м/с)
Видим. Явления Облачность Т
(С)
Тd
(С)
f
(%)
Тe
(С)
Тes
(С)
Комфортность P
(гПа)
Po
(гПа)
Тmin
(С)
Tmax
(С)
R
(мм)
R24
(мм)
S
(см)
штиль 0 7000 м мгла {дождь} 10/5 210 м
[Cb calv As op]
+20.8 +16.5 76 +24 +24 комфорт 1009.1 824.1 0.8
штиль 0 5000 м мгла {дождь} 10/5 210 м
[Cb calv As op]
+19.2 +15.8 81 +21 +21 комфорт 1010.9 825.6 +25.8 0.8
штиль 0 4000 м мгла 9/5 180 м
[Cu hum Ac trans Ci fib]
+17.0 +15.1 89 +17 +17 1009.6 824.5 0.5
штиль 0 4000 м мгла 9/8 210 м
[Cu Sc Ac As Ci fib]
+18.8 +16.3 85 +20 +22 1011.2 825.8 +16.8 2
З 4 6000 м 6/5 180 м
[Cu hum As trans Ci fib]
+22.0 +17.5 76 +27 +33 душно 1009.8 824.6
З 5 7000 м осадки на расстоянии 9/8 180 м
[Cb cap Ac cuf Ci ing]
+21.0 +16.4 75 +25 +25 комфорт 1006.7 822.2
З 3 3000 м слаб. дождь {морось} 10/8 150 м
[Cb cap As op]
+19.0 +16.5 85 +21 +21 комфорт 1008.3 823.5 1
штиль 0 1000 м в посл. час дождь {морось} 10/8 150 м
[Cu Sc As op]
+18.6 +15.4 82 +19 +19 1010.0 824.9 +23.0 5
СВ 2 5000 м осадки на расстоянии 10/4 240 м
[Cu Sc As op]
+16.8 +14.2 85 +17 +17 1009.7 824.6 2
С 2 7000 м мгла 8/4 240 м
[Cu Sc Ac und Ci sp]
+19.0 +14.9 77 +21 +25 комфорт 1011.4 826.0 +16.2 8
З 4 7000 м мгла 8/4 240 м
[Cu Sc Ac und Ci sp]
+21.2 +15.9 72 +25 +31 комфорт 1009.7 824.6
З 4 5000 м 6/5 180 м
[Cu hum As trans Ci fib]
+21.2 +14.9 67 +24 +27 комфорт 1007.2 822.5
ЮВ 2 5000 м мгла 9/8 180 м
[Cb calv Ac As Ci fib]
+19.8 +15.7 77 +23 +23 комфорт 1008.3 823.5
штиль 0 5000 м в посл. час дождь 9/5 240 м
[Cu Sc Ac As Ci fib]
+17.8 +15.6 87 +18 +18 1011.1 825.8 +22.2 0.0
В 2 4000 м мгла {туман, дождь} 10/6 150 м
[Cu Sc As trans]
+16.2 +13.6 85 +17 +17 1009.9 824.7 2
штиль 0 7000 м осадки на расстоянии 9/6 270 м
[Cu Sc As trans]
+18.6 +15.1 80 +19 +23 1011.6 826.2 +14.2 2
З 3 8000 м 9/5 270 м
[Cu Sc Ac lent Ci]
+21.4 +15.1 67 +25 +30 комфорт 1010.3 825.1
З 3 7000 м мгла 9/4 240 м
[Cu Sc Ac As Ci sp]
+21.4 +15.8 70 +25 +28 комфорт 1008.4 823.5
штиль 0 5000 м осадки на расстоянии 9/4 240 м
[Cu Sc Ac As Ci sp]
+19.8 +16.1 79 +22 +22 комфорт 1009.4 824.4
штиль 0 4000 м в посл. час дождь 9/4 240 м
[Cu Sc Ac As Ci sp]
+17.2 +15.9 92 +17 +17 1011.3 826.0 +22.6 3
В 1 4000 м мгла 9/4 210 м
[Cu med, cong As trans Ci fib]
+16.8 +14.5 86 +18 +18 1010.3 825.0
СЗ 1 4000 м мгла 5/5 180 м
[Cu hum As trans Ci fib]
+19.0 +15.5 80 +21 +28 комфорт 1012.5 826.7 +16.4 3
З 5 4000 м 5/5 180 м
[Cu hum As trans Ci fib]
+22.6 +16.5 68 +27 +33 душно 1011.0 825.7
З 4 3000 м слаб. дождь 10/8 180 м
[Cb cap As op]
+21.8 +16.9 74 +26 +26 душно 1008.5 823.6 0.0
З 2 3000 м морось {дождь} 10/8 180 м
[Cu Sc As op]
+18.6 +16.7 89 +20 +20 1009.7 824.6 1
штиль 0 1000 м слаб. морось {дождь} 10/8 180 м
[Cu Sc As op]
+18.4 +16.2 87 +19 +19 1011.8 826.3 +24.0 0.0
штиль 0 5000 м осадки на расстоянии 10/4 240 м
[Cu Sc As op]
+17.4 +14.2 81 +17 +17 1011.9 826.4
СВ 2 7000 м мгла 9/4 240 м
[Cu Sc Ac As Ci sp]
+19.8 +14.0 69 +22 +26 комфорт 1013.0 827.3 +16.0 1
З 3 7000 м мгла 9/4 240 м
[Cu Sc Ac As Ci sp]
+21.8 +15.6 68 +25 +32 комфорт 1011.5 826.0
З 3 6000 м мгла 10/6 240 м
[Cu med, cong Ac As Ci fib]
+21.0 +15.4 70 +25 +27 комфорт 1009.6 824.5
СЗ 1 6000 м осадки на расстоянии 10/10 150 м
[Cb cap]
+20.4 +15.7 74 +24 +24 комфорт 1010.0 824.8
штиль 0 6000 м в посл. час дождь 10/6 240 м
[Cu med, cong Ci fib]
+18.4 +15.9 85 +19 +19 1012.5 826.8 +22.4 0.0
В 2 4000 м мгла {дождь} 10/6 180 м
[Cu Sc As trans]
+17.0 +14.1 83 1011.4 2
С 2 8000 м 6/4 240 м
[Cu Sc Ac lent Ci]
+20.8 +14.8 69 +25 +31 комфорт 1012.2 826.6 +15.2 2
З 5 9000 м 6/4 270 м
[Cu Sc Ac lent Ci]
+23.8 +15.8 61 +27 +33 жарко 1010.6 825.3
З 7 8000 м мгла 8/4 240 м
[Cu Sc Ac As Ci sp]
+23.6 +15.9 62 +27 +28 жарко 1008.4 823.5
З 3 5000 м осадки на расстоянии 10/4 240 м
[Cu Sc Ac As Ci sp]
+21.2 +16.6 75 +25 +25 комфорт 1009.2 824.2
штиль 0 5000 м осадки на расстоянии 10/4 240 м
[Cu Sc Ac As Ci sp]
+19.8 +16.1 79 +22 +22 комфорт 1011.7 826.2 +24.4
В 1 4000 м в посл. час дождь 10/5 210 м
[Cu Sc As op Ci ing]
+17.8 +15.6 87 +19 +19 1011.7 826.2 3
СВ 1 4000 м мгла 9/5 210 м
[Cu med, cong Ac As Ci fib]
+19.6 +16.8 84 +23 +27 комфорт 1012.7 827.1 +17.4 3
ЮЗ 4 6000 м мгла 6/4 180 м
[Cu hum As trans Ci fib]
+24.0 +14.9 57 +27 +35 жарко 1010.6 825.3
З 5 6000 м осадки на расстоянии 9/6 210 м
[Cb cap Ac cuf Ci ing]
+24.8 +17.6 64 +29 +30 душно 1007.8 823.1
Местоположение метеостанции Энаротали (Индонезия): широта -3.92 долгота 136.37 высота над уровнем моря 1770 м.
В архиве по умолчанию представлена погода в Энаротали за последнюю неделю. Архивные данные за месяц целиком и за предыдущие месяцы, начиная с января 2011 года, Вы можете получить, выбрав интересующий диапазон дат из раскрывающегося списка и нажав кнопку "Найти!".
*Определитесь, кто Вы:
Внимание! Время в таблицах - всемирное. Для получения местного времени необходимо прибавить поправку, которая равна 9 ч.
Смотрите также архив погоды в соседних городах и на ближайших метеорологических станциях:
Партнеры нашего сайта:      
Пояснения к столбцам:
  • Ветер - указаны скорость ветра в м/с - средняя за 10 мин, порывы в срок и между сроками (в фигурных скобках) и направление, откуда дует ветер: С - северный,
  • СВ - северо-восточный, В - восточный, ЮВ - юго-восточный, Ю - южный, ЮЗ - юго-западный, З - западный, СЗ - северо-западный.
  • Видимость - горизонтальная дальность видимости в метрах или километрах. При видимости от 1 до 10 км при отсутствии осадков обычно наблюдается дымка, при ухудшении видимости до 1 км и менее - туман. В сухую погоду видимость может ухудшаться дымом, пылью или мглою.
  • Явления - указаны атмосферные явления, наблюдавшиеся в срок или в последний час перед сроком; фигурными скобками обозначены явления, наблюдавшиеся между сроками (за 1-3 часа до срока); квадратными скобками обозначены град или гололедные отложения с указанием их диаметра в мм.
  • Облачность - указаны через наклонную черту общая и нижняя облачность в баллах и высота нижней границы облаков в метрах; квадратными скобками обозначены формы облаков: Ci - перистые, Cs - перисто-слоистые, Cc - перисто-кучевые, Ac - высококучевые, As - высокослоистые, Sc - слоисто-кучевые, Ns - слоисто-дождевые, Cu - кучевые, Cb - кучево-дождевые. Подробнее классификацию облаков см. в Атласе облаков (PDF).
  • T - Температура воздуха - температура, измеренная на высоте 2 м над землей.
  • Td - Температура точки росы - температура, при понижении до которой содержащийся в воздухе водяной пар достигнет насыщения.
  • f - Относительная влажность воздуха - влажноcть воздуха, измеренная на высоте 2 м над землей.
  • Te - Эффективная температура - температура, которую ощущает одетый по сезону человек в тени. Характеристика душности погоды. При расчете учитывается влияние влажности воздуха и скорости ветра на теплоощущения человека.
  • Tes - Эффективная температура на солнце - температура, которую ощущает человек, с поправкой на солнечный нагрев. Характеристика знойности погоды. Зависит от высоты солнца над горизонтом, облачности и скорости ветра. Ночью, в пасмурную погоду, а также при ветре 12 м/с и более поправка равна нулю.
  • P - Атмосферное давление - приведенное к уровню моря атмосферное давление.
  • Po - Атмосферное давление - измеренное на уровне метеостанции атмосферное давление.
  • Tmin - Минимальная температура - минимум температуры воздуха на высоте 2 м над землей.
  • Tmax - Максимальная температура - максимум температуры воздуха на высоте 2 м над землей.
  • R - Количество осадков - Количество выпавших осадков за период времени, мм. При наведении курсора мыши на число - период времени, за который выпало указанное количество осадков.
  • R24 - Количество осадков - Количество выпавших осадков за 24 часа, мм.
  • S - Снежный покров - Высота снежного покрова, см. При наведении курсора мыши на число - состояние снежного покрова и степень покрытия местности в баллах.